Wind_Speed
33 33 34 34 34 34 35 36 37 36 35 34 34 36 37 36 36 36 37 38 38 38 40 41 42 43 44 44 45 45 44 44 45 45 47 48 49 50 50 51 51 52 52 53
35 35 35 35 34 34 34 34 35 35 34 33 34 35 36 36 36 37 37 38 39 39 40 41 42 43 44 44 45 45 46 45 46 46 46 47 48 49 50 50 50 51 52 52
35 34 35 35 33 33 34 34 34 35 34 34 33 34 35 35 35 36 38 39 39 40 40 41 42 42 43 43 44 45 45 45 46 45 45 46 48 49 49 49 50 51 52 52
35 35 35 34 32 32 33 33 34 35 34 34 34 34 35 35 36 36 37 38 39 40 41 41 41 42 43 43 44 44 44 44 44 44 44 45 46 47 47 48 49 50 51 52
35 36 35 32 32 32 33 33 34 34 34 35 35 35 35 35 36 37 37 38 39 39 40 40 40 41 41 42 43 43 43 44 44 44 44 45 45 46 47 47 48 49 50 51
35 36 36 34 33 33 34 35 34 34 34 35 35 36 35 35 36 36 36 36 37 37 38 38 39 39 39 40 41 42 42 43 44 44 45 45 46 47 47 48 48 49 50 51
34 36 36 35 34 35 36 36 36 35 35 35 35 36 36 36 35 35 35 35 35 36 36 37 38 38 39 39 40 40 41 42 43 44 44 45 45 46 47 48 49 49 50 50
35 36 36 36 36 36 37 37 36 36 36 36 35 35 35 35 35 34 35 35 35 36 36 37 38 38 38 39 39 41 41 42 43 44 45 45 45 45 46 47 48 49 50 50
36 36 37 37 37 37 37 37 37 37 37 37 36 36 36 35 35 34 35 35 36 36 37 37 38 38 39 39 39 40 41 42 43 43 44 45 45 45 45 45 46 47 48 48
37 36 37 37 38 38 38 38 37 37 37 37 37 36 36 36 35 36 36 37 37 37 37 37 38 38 39 39 40 40 41 41 41 41 42 44 45 45 45 45 45 45 45 45
37 36 37 37 38 38 38 38 37 37 38 38 38 37 36 36 35 36 37 37 37 37 37 38 38 38 39 39 39 40 40 40 41 41 41 42 43 44 44 44 45 45 44 44
37 37 38 37 37 37 37 37 37 38 38 38 37 37 37 37 37 37 37 37 37 37 37 37 38 38 39 39 39 39 40 40 40 40 41 42 43 44 44 44 45 45 45 44
37 37 37 36 36 36 37 37 37 37 37 37 37 37 37 37 38 37 37 37 37 38 37 37 38 38 38 39 39 39 40 41 41 41 41 42 43 43 44 44 45 45 44 44
36 36 36 36 36 36 37 37 37 36 37 37 37 37 37 37 37 38 37 37 37 38 38 38 38 38 38 38 39 40 40 41 41 42 42 42 42 42 43 43 43 43 44 44
35 35 35 35 35 36 36 37 37 37 36 37 37 37 37 37 37 37 37 38 37 37 38 38 38 38 39 39 40 40 41 42 42 42 42 42 42 42 43 43 43 43 43 43
34 34 34 34 35 35 35 35 36 36 36 36 36 37 37 37 37 38 38 38 38 38 38 38 38 39 40 40 41 41 42 42 42 42 42 42 42 43 43 43 43 43 43 43
34 34 34 34 34 34 34 34 34 34 34 35 36 37 37 38 38 38 39 39 39 39 39 39 39 40 40 41 41 41 42 42 42 42 42 42 42 42 42 42 42 42 42 43
34 35 35 34 34 33 34 34 34 34 34 35 36 37 37 38 39 39 39 40 40 40 41 41 41 41 41 42 42 42 42 42 42 42 42 42 42 42 41 41 41 41 41 42
35 35 34 34 34 33 33 33 34 34 35 35 36 37 38 39 39 39 40 40 40 40 41 41 41 42 42 42 42 42 42 42 42 42 42 41 41 41 41 41 41 41 40 40
35 35 34 34 34 34 34 35 36 36 37 37 37 38 38 38 39 39 39 40 40 40 41 41 42 42 42 41 41 41 41 41 41 41 41 40 40 40 39 39 39 38 38 39
35 35 34 34 35 35 36 36 37 38 38 38 38 38 38 39 39 39 39 40 40 40 41 41 40 40 40 40 40 40 40 39 39 39 38 38 38 37 36 36 36 36 36 37
35 35 35 35 35 36 36 37 38 38 38 38 38 39 39 39 39 39 39 40 40 40 40 40 40 39 39 39 39 38 38 38 37 37 36 36 35 35 35 35 35 35 35 35
35 35 35 36 36 37 37 38 38 39 38 38 38 39 39 39 39 39 39 39 39 39 39 39 39 39 38 38 37 37 37 37 36 36 36 36 35 35 34 34 34 34 34 34
35 35 36 36 37 37 38 39 39 39 39 39 39 39 39 39 39 39 39 39 39 38 38 38 39 38 38 37 37 37 37 36 36 35 35 35 35 34 34 34 33 33 33 32
36 36 37 37 38 38 38 38 38 39 39 39 39 38 38 38 37 37 38 38 38 38 38 38 38 38 37 37 36 36 36 35 35 34 34 34 34 34 34 33 33 32 32 31
36 37 37 37 37 37 37 37 38 38 38 38 37 37 36 36 36 36 37 37 37 37 37 38 37 37 37 36 36 35 35 34 34 34 33 33 33 33 33 33 33 32 31 31
37 37 37 37 37 37 36 36 36 36 36 36 35 35 35 35 35 35 36 36 36 36 36 36 36 36 35 35 34 34 33 32 32 32 32 31 31 31 31 31 31 30 29 29
Wind_Direction
290 289 288 286 285 283 283 283 283 285 285 286 283 279 279 278 275 273 271 271 272 271 269 268 267 267 268 269 270 269 270 270 269 268 266 265 265 264 264 263 262 260 260 260
289 289 288 286 286 285 284 284 285 286 286 287 285 281 280 279 277 275 273 273 273 272 271 270 269 269 269 270 270 271 272 271 270 269 268 266 266 266 265 265 263 262 261 261
291 290 288 287 289 288 285 285 287 288 289 288 286 283 283 281 280 278 276 275 275 274 273 272 271 270 270 271 272 272 272 271 270 269 269 268 266 266 265 264 264 264 263 263
292 291 291 293 290 288 287 287 288 288 288 288 286 285 284 283 281 280 278 277 276 276 275 273 272 272 271 271 272 272 271 270 269 268 268 268 267 266 265 265 265 265 264 264
291 291 292 292 291 291 290 289 289 289 288 288 287 287 286 285 283 281 280 279 278 277 275 273 273 273 273 273 272 272 271 271 270 268 268 268 268 267 267 266 266 266 266 266
291 291 293 294 292 291 290 290 291 289 288 288 287 287 287 286 284 282 281 281 280 278 276 275 274 274 273 273 273 272 271 271 270 269 268 268 268 268 268 268 268 268 268 267
291 292 292 293 293 292 290 292 291 290 289 290 289 288 288 287 285 283 282 282 281 279 277 276 275 275 275 274 274 273 273 273 272 270 269 268 269 269 269 270 270 270 270 269
291 292 293 292 292 291 290 289 290 289 289 290 290 289 289 288 285 283 281 281 280 280 278 277 276 276 276 275 275 274 274 274 273 272 271 269 270 271 271 272 272 273 272 272
290 291 290 290 289 289 289 288 288 288 288 289 290 289 289 288 285 283 281 281 280 280 279 278 277 277 276 276 276 276 276 275 275 274 272 271 271 271 272 273 273 274 273 272
291 290 289 288 287 287 287 287 287 287 287 288 288 289 288 287 286 283 282 281 281 281 280 279 279 278 277 277 277 277 277 276 275 274 274 273 273 273 273 273 274 274 273 272
291 290 289 287 286 287 287 287 287 287 286 287 287 287 286 286 285 284 284 283 283 283 282 281 280 279 279 279 278 278 277 277 276 276 276 276 275 274 274 273 274 275 275 273
292 291 290 289 287 287 287 287 286 286 286 286 286 286 286 285 285 285 284 284 283 283 283 282 281 281 280 279 279 278 278 278 278 278 278 277 277 275 275 274 274 274 274 274
293 293 292 290 289 288 288 288 287 286 286 285 285 285 286 285 284 284 284 284 284 284 284 283 283 282 282 281 281 280 280 279 279 278 279 279 278 276 275 275 275 274 274 274
294 294 292 291 290 290 289 289 288 286 286 285 285 285 286 285 284 284 285 285 284 284 284 284 284 283 282 282 282 282 281 281 281 280 280 280 279 277 276 275 274 274 273 273
295 295 294 293 291 291 290 290 289 287 285 285 285 285 285 285 285 284 284 285 284 284 284 284 284 284 283 283 283 283 283 282 283 282 281 280 279 278 278 277 275 273 272 272
296 296 296 295 294 293 292 291 290 288 286 285 285 285 286 286 286 285 284 284 284 283 283 284 284 285 285 286 285 284 284 283 283 282 282 281 280 279 278 277 276 274 272 271
297 297 296 296 295 293 292 292 291 290 288 287 286 285 285 285 285 285 284 284 284 284 283 284 284 285 286 287 286 285 285 284 283 283 282 281 280 279 278 278 277 275 273 271
298 298 297 296 296 294 294 293 293 292 291 289 288 287 286 285 285 285 285 285 285 284 283 283 284 285 286 286 286 285 284 284 283 283 283 282 281 280 279 278 277 275 274 273
299 299 299 297 296 296 295 295 295 294 293 291 290 288 287 287 286 285 286 285 285 285 285 285 285 286 286 286 286 285 285 284 284 283 283 282 281 281 279 278 277 276 275 273
299 298 298 297 296 296 295 295 295 295 294 293 292 291 290 289 288 287 287 287 286 286 286 286 286 286 286 286 286 286 285 285 284 284 283 282 281 280 280 279 278 277 276 274
299 298 297 297 296 296 296 296 296 295 295 294 293 292 291 290 289 289 289 288 288 288 288 287 287 287 287 287 287 287 286 285 285 284 283 282 281 281 280 280 279 278 277 276
301 300 299 298 298 297 297 297 297 296 295 294 293 293 292 291 290 289 289 289 289 289 288 288 287 287 288 287 287 288 287 286 286 285 283 282 281 281 281 280 280 279 278 277
302 301 300 300 299 299 298 298 298 298 297 295 294 294 294 293 292 291 290 290 290 290 289 288 288 288 288 288 288 287 287 287 286 284 283 282 281 281 281 281 280 279 278 277
304 303 302 301 301 300 299 299 299 299 298 297 296 296 295 294 293 293 292 291 291 291 290 289 289 288 288 287 287 287 287 286 285 284 283 282 282 281 281 281 280 279 278 277
304 303 303 302 302 301 301 300 300 300 299 299 298 297 296 296 295 295 294 293 292 292 291 290 290 290 289 288 287 287 286 286 285 284 283 282 282 281 281 281 280 279 277 277
306 305 304 304 303 303 302 301 301 301 301 300 299 298 298 297 296 296 296 295 294 293 293 292 291 290 289 288 288 287 286 285 284 283 282 282 281 281 280 280 279 278 277 276
306 306 305 305 304 304 304 304 303 303 303 302 301 300 300 300 299 299 299 298 298 296 295 294 293 292 290 289 288 287 286 285 284 284 283 283 282 281 280 280 279 278 277 276
Height
5575 5572 5569 5566 5564 5561 5557 5555 5552 5552 5550 5549 5546 5543 5541 5539 5537 5536 5535 5534 5533 5532 5531 5530 5530 5529 5529 5528 5527 5526 5525 5524 5523 5522 5522 5522 5521 5522 5521 5521 5521 5522 5521 5522
5565 5562 5558 5556 5554 5551 5548 5545 5542 5540 5539 5538 5535 5532 5530 5528 5526 5525 5524 5523 5521 5520 5519 5518 5517 5516 5515 5514 5513 5512 5512 5511 5509 5509 5508 5508 5508 5507 5507 5506 5506 5506 5506 5507
5554 5551 5547 5546 5545 5541 5538 5536 5533 5530 5530 5526 5524 5521 5519 5517 5515 5514 5513 5511 5510 5508 5506 5505 5504 5503 5502 5501 5500 5499 5498 5497 5496 5494 5494 5494 5494 5493 5493 5492 5491 5491 5491 5491
5543 5541 5537 5539 5534 5531 5528 5526 5523 5520 5518 5515 5513 5511 5508 5506 5505 5503 5501 5499 5497 5495 5494 5493 5491 5490 5489 5488 5486 5485 5484 5483 5482 5481 5481 5480 5480 5479 5478 5477 5477 5477 5476 5476
5533 5529 5527 5528 5524 5520 5517 5516 5513 5510 5507 5504 5502 5500 5498 5495 5493 5491 5489 5487 5485 5483 5482 5480 5479 5478 5476 5475 5473 5472 5471 5470 5469 5468 5467 5467 5466 5465 5464 5463 5463 5462 5461 5461
5523 5519 5517 5518 5514 5510 5507 5505 5503 5500 5497 5494 5492 5490 5488 5485 5482 5480 5478 5475 5473 5472 5470 5468 5467 5466 5464 5463 5461 5459 5458 5457 5456 5455 5454 5453 5453 5452 5450 5450 5449 5447 5446 5446
5514 5509 5508 5507 5503 5500 5498 5497 5492 5489 5486 5484 5482 5480 5477 5474 5471 5469 5467 5465 5463 5461 5459 5457 5455 5454 5452 5451 5449 5447 5446 5444 5443 5441 5440 5440 5439 5438 5437 5436 5435 5434 5432 5431
5504 5501 5501 5496 5493 5490 5488 5484 5481 5478 5476 5473 5471 5468 5465 5463 5460 5458 5456 5454 5452 5450 5447 5446 5444 5442 5441 5439 5437 5435 5433 5432 5430 5428 5427 5426 5425 5424 5423 5421 5420 5419 5417 5416
5496 5494 5489 5485 5482 5479 5476 5473 5470 5467 5465 5463 5460 5457 5455 5452 5450 5447 5445 5443 5441 5438 5436 5434 5432 5430 5429 5427 5425 5423 5421 5419 5417 5415 5413 5412 5411 5410 5409 5407 5406 5404 5402 5401
5484 5482 5478 5474 5471 5468 5465 5462 5459 5457 5454 5452 5449 5447 5444 5441 5439 5436 5434 5432 5429 5427 5425 5422 5420 5418 5416 5414 5412 5410 5408 5406 5404 5402 5400 5398 5397 5396 5395 5393 5392 5390 5388 5386
5473 5470 5467 5463 5460 5457 5454 5451 5448 5446 5443 5441 5438 5436 5433 5430 5428 5425 5423 5421 5418 5415 5413 5410 5408 5406 5404 5402 5400 5398 5395 5393 5391 5389 5387 5385 5383 5382 5380 5379 5377 5375 5374 5372
5462 5459 5455 5452 5449 5446 5443 5440 5437 5434 5432 5429 5427 5424 5421 5419 5416 5414 5412 5409 5406 5404 5401 5399 5396 5394 5392 5390 5387 5385 5383 5380 5378 5376 5374 5372 5370 5368 5365 5364 5362 5361 5359 5358
5450 5447 5443 5440 5437 5434 5431 5429 5426 5423 5420 5418 5415 5412 5410 5407 5405 5402 5400 5397 5395 5392 5389 5387 5384 5382 5379 5377 5375 5372 5370 5368 5365 5363 5361 5358 5356 5354 5352 5350 5348 5347 5345 5344
5439 5436 5433 5429 5426 5423 5420 5417 5414 5412 5409 5406 5403 5401 5398 5395 5393 5390 5388 5386 5383 5380 5378 5375 5372 5370 5367 5365 5362 5360 5357 5355 5352 5350 5348 5345 5343 5341 5339 5337 5336 5333 5332 5330
5429 5425 5422 5418 5415 5412 5409 5406 5403 5400 5397 5395 5392 5389 5387 5384 5381 5379 5376 5374 5371 5368 5365 5363 5360 5358 5355 5352 5350 5347 5344 5342 5339 5337 5334 5331 5329 5327 5325 5323 5321 5320 5319 5317
5419 5415 5411 5408 5404 5401 5397 5394 5391 5388 5385 5383 5380 5377 5375 5372 5369 5366 5364 5361 5359 5356 5353 5351 5348 5346 5343 5340 5337 5334 5331 5328 5326 5323 5320 5318 5315 5313 5311 5309 5307 5306 5305 5304
5408 5404 5401 5397 5394 5390 5386 5383 5380 5377 5374 5371 5368 5365 5363 5360 5357 5354 5352 5349 5346 5344 5341 5339 5336 5333 5330 5327 5324 5321 5318 5315 5312 5309 5307 5304 5302 5299 5297 5295 5293 5292 5291 5289
5397 5394 5390 5386 5383 5379 5375 5372 5369 5365 5362 5359 5356 5353 5350 5348 5345 5342 5339 5336 5333 5331 5328 5326 5323 5320 5317 5314 5311 5308 5305 5302 5298 5296 5293 5291 5288 5286 5284 5282 5280 5278 5276 5275
5387 5383 5379 5376 5372 5368 5365 5361 5358 5354 5351 5347 5344 5341 5338 5335 5332 5329 5326 5323 5320 5318 5315 5312 5309 5306 5303 5300 5297 5294 5291 5288 5285 5282 5279 5277 5274 5272 5270 5268 5266 5264 5262 5261
5376 5373 5369 5365 5361 5358 5354 5350 5347 5343 5339 5336 5332 5329 5325 5322 5319 5316 5313 5310 5307 5304 5301 5298 5295 5292 5289 5286 5283 5280 5277 5274 5271 5268 5266 5263 5261 5258 5256 5254 5252 5250 5249 5247
5366 5362 5358 5354 5351 5347 5343 5339 5335 5331 5327 5324 5320 5316 5313 5309 5306 5303 5300 5297 5294 5291 5287 5284 5282 5278 5275 5272 5269 5266 5263 5260 5257 5255 5252 5250 5247 5245 5243 5241 5239 5238 5236 5234
5355 5351 5347 5343 5340 5336 5332 5328 5324 5319 5315 5312 5308 5304 5300 5297 5293 5290 5287 5284 5280 5277 5274 5271 5268 5265 5262 5259 5256 5253 5250 5247 5245 5242 5239 5237 5235 5233 5231 5229 5227 5225 5224 5222
5345 5341 5337 5333 5328 5324 5320 5316 5312 5308 5303 5299 5296 5292 5288 5284 5280 5277 5274 5270 5267 5264 5261 5258 5255 5252 5249 5246 5243 5240 5237 5235 5232 5230 5227 5225 5223 5221 5219 5217 5215 5213 5212 5210
5334 5330 5326 5321 5317 5313 5308 5304 5300 5296 5291 5287 5283 5279 5275 5271 5267 5264 5260 5257 5254 5250 5248 5245 5242 5239 5236 5233 5230 5228 5225 5222 5220 5217 5215 5213 5211 5209 5207 5205 5203 5202 5200 5199
5324 5319 5315 5310 5306 5301 5297 5292 5288 5283 5279 5275 5271 5267 5263 5259 5255 5251 5248 5244 5241 5238 5235 5232 5229 5226 5223 5220 5218 5215 5213 5210 5208 5205 5203 5201 5199 5197 5195 5193 5192 5190 5189 5187
5313 5309 5304 5299 5295 5290 5285 5281 5277 5272 5268 5263 5259 5255 5251 5247 5243 5240 5236 5232 5229 5225 5222 5219 5216 5213 5210 5208 5205 5203 5200 5198 5195 5193 5191 5189 5187 5185 5183 5182 5180 5179 5178 5176
5302 5297 5293 5288 5283 5279 5274 5270 5266 5261 5257 5252 5248 5244 5240 5236 5232 5228 5224 5221 5217 5213 5210 5207 5204 5201 5198 5195 5193 5190 5188 5186 5184 5182 5179 5177 5176 5174 5172 5170 5169 5168 5167 5165